Location: Pace/Milton
(30.6162°N, 87.1503°W)
Time: 21:28:17
(UTC-06:00)

X-37B - Visible Passes

Search period start: 05 December 2021 00:00
Search period end: 15 December 2021 00:00
Orbit: 330 x 341 km, 45.0° (Epoch: 20 November)

Date Brightness Start Highest point End Pass type
(mag) Time Alt. Az. Time Alt. Az. Time Alt. Az.
05 Dec 1.9 18:12:09 10° W 18:14:38 26° NNW 18:14:56 25° NNW visible
06 Dec 3.3 18:34:08 10° NW 18:34:38 11° NW 18:34:38 11° NW visible
07 Dec 2.0 17:17:34 10° W 17:20:04 26° NNW 17:22:34 10° NNE visible
08 Dec 3.0 17:39:32 10° NW 17:40:47 12° NNW 17:42:02 10° N visible
